NOAA 16 DEB, 42378

Orbit data source: Space-Track

NOAA 16 DEB, 42378 is space debris in SSO originally from a launch on Thu, 21 Sep 2000 UTC launched from the Air Force Western Test Range (AFWTR). Debris objects in space refer to the collection of defunct objects orbiting the Earth. Examples of debris include non-operational satellites, rocket bodies, and fragments generated from explosions, collisions, or faulty payload assembly.

Loading next visibility...
Identifier
42378, 2000-055RW
Orbit
SSO
Country
Flag of USUS
Related business
Manufacturer
Unknown
Mission
Spacecraft
Bus & Motor
Unknown
Mass
Unknown
Launch date (UTC)
2000-09-21 (26 years ago)
Launch vehicle
Unknown
Launch site
Air Force Western Test Range (AFWTR)
Object type
Payload
Rocket body
Debris
Shape & HBR
Unknown shape, 0.1 m
Radar Cross Section
Medium (>0.1 m² and <1 m²)

Expand to show TLE details & history
Last TLE update: 1 day ago

TLE from 1 day ago
0 NOAA 16 DEB
1 42378U 00055RW  26205.70970219  .00006522  00000-0  17801-2 0  9998
2 42378  98.8705 356.1511 0017172  24.8347 335.3667 14.47583209539734
Epoch: 2026-07-24T17:01Z
TLE epoch observation values (Epoch: 2026-07-24T17:01:58.269Z)
Latitude
-0.00001°
Longitude
158.22588°
Altitude
725.4 km
Speed
7.498 km/s
True Right ascension
23h 44m 36s
True Declination
0° 00' 00"
Sunlit
Object was in full shadow at epoch
Visualization orbit readout
Latitude
Unknown
Longitude
Unknown
Altitude
Unknown
Speed
Unknown
Apparent Right ascension
Unknown
Apparent Declination
Unknown
Sunlit
N/A
Visualization observer readout
Local Sidereal Time
16:59:41
Azimuth
Unknown
Elevation
Unknown
Doppler factor
Unknown
Orbital elements
Apogee altitude
742.89 km
Perigee altitude
718.475 km
Semi-major axis
7,108.82 km
Eccentricity
0.00172
Inclination
98.8705°
RAAN
356.1511°
Arg. of periapsis
24.8347°
True anomaly
335.28452°
Mean anomaly
335.3667°
Eccentric anomaly
335.32563°
Mean motion
3.62115 °/min
Orbital period
99.42 mins
BSTAR
0.0017801
Loading maneuver chart data...
Computing Atmospheric mass density...
Loading historical data...
Loading historical data...
Loading historical data...
Loading historical data...
Loading historical data...
Loading historical data...
Loading historical data...

Documentation

Showing up to 5 results
|